period_start,C,m1,H,J0,J1,J2,J3,J4,J5,JA,JB,JC,JD,JJ,JK,JN,#
2014-04-14 00:00:06,0.12,1.63,0.00,18.65,25.27,27.14,5.83,32.17,1002.05,2046.93,2859.41,2882.99,3100.80,349.16,323.07,13.62,0000 0000 0000 0000 000000
2014-04-14 00:01:06,0.11,1.63,0.00,18.67,25.27,27.13,6.00,31.92,1002.17,2046.90,2859.14,2882.65,3100.33,349.84,323.59,13.62,0000 0000 0000 0000 000000
2014-04-14 00:02:07,0.20,1.63,0.00,18.66,25.27,27.11,5.99,31.88,1002.22,2046.86,2858.94,2882.29,3100.12,349.75,323.79,13.63,0000 0000 0000 0000 000000
2014-04-14 00:03:07,0.08,1.63,0.00,18.65,25.27,27.13,6.01,31.92,1002.14,2046.85,2858.57,2882.12,3100.03,349.58,323.96,13.63,0000 0000 0000 0000 000000
2014-04-14 00:04:07,0.15,1.64,0.00,18.67,25.27,27.12,6.13,31.92,1002.16,2046.82,2858.26,2882.01,3099.71,351.07,325.34,13.64,0000 0000 0000 0000 000000
2014-04-14 00:05:07,0.07,1.64,0.00,18.67,25.27,27.10,6.04,31.83,1002.15,2046.81,2857.99,2881.90,3099.28,350.35,324.13,13.65,0000 0000 0000 0000 000000
2014-04-14 00:06:07,0.16,1.64,0.00,18.66,25.27,27.12,6.06,31.63,1002.27,2046.71,2857.60,2881.57,3099.09,349.18,323.39,13.65,0000 0000 0000 0000 000000
2014-04-14 00:07:08,0.07,1.64,0.00,18.66,25.27,27.12,6.04,31.58,1002.36,2046.65,2857.24,2881.22,3099.02,349.76,323.94,13.66,0000 0000 0000 0000 000000
2014-04-14 00:08:08,0.10,1.64,0.00,18.67,25.27,27.15,6.03,31.88,1002.29,2046.56,2857.09,2881.08,3098.87,349.45,323.63,13.66,0000 0000 0000 0000 000000
2014-04-14 00:09:08,0.00,1.64,0.00,18.68,25.28,27.18,6.02,31.92,1002.11,2046.52,2856.82,2881.00,3098.42,350.17,324.22,13.67,0000 0000 0000 0000 000000
2014-04-14 00:10:08,0.10,1.64,0.00,18.69,25.29,27.14,6.11,32.29,1002.10,2046.63,2856.31,2880.70,3098.15,351.40,325.35,13.67,0000 0000 0000 0000 000000
2014-04-14 00:11:08,0.37,1.64,0.00,18.68,25.30,27.14,6.02,31.67,1002.41,2046.63,2856.10,2880.33,3098.03,349.77,323.96,13.68,0000 0000 0000 0000 000000
2014-04-14 00:12:09,0.13,1.64,0.00,18.66,25.30,27.14,6.12,31.88,1002.44,2046.49,2855.93,2880.11,3097.84,350.19,324.37,13.69,0000 0000 0000 0000 000000
2014-04-14 00:13:09,-0.05,1.64,0.00,18.63,25.30,27.09,6.11,31.92,1002.45,2046.31,2855.47,2880.04,3097.39,350.55,324.41,13.69,0000 0000 0000 0000 000000
2014-04-14 00:14:09,0.02,1.64,0.00,18.64,25.30,27.11,5.98,32.00,1002.46,2046.23,2855.16,2879.88,3097.14,349.69,324.02,13.70,0000 0000 0000 0000 000000
2014-04-14 00:15:09,0.06,1.64,0.00,18.64,25.30,27.08,6.03,31.92,1002.45,2046.14,2855.01,2879.47,3097.04,349.84,324.25,13.70,0000 0000 0000 0000 000000
2014-04-14 00:16:09,0.07,1.64,0.00,18.66,25.30,27.11,5.96,31.88,1002.44,2046.20,2854.77,2879.19,3096.90,349.66,323.89,13.71,0000 0000 0000 0000 000000
2014-04-14 00:17:10,0.21,1.64,0.00,18.68,25.30,27.11,6.02,31.88,1002.44,2046.25,2854.42,2879.07,3096.56,349.86,324.05,13.72,0000 0000 0000 0000 000000
2014-04-14 00:18:10,0.13,1.64,0.00,18.69,25.30,27.14,5.98,31.96,1002.45,2046.15,2854.17,2879.02,3096.23,349.81,323.99,13.72,0000 0000 0000 0000 000000
2014-04-14 00:19:10,0.03,1.64,0.00,18.72,25.30,27.17,6.02,32.17,1002.46,2046.16,2853.78,2879.00,3096.08,349.67,323.83,13.73,0000 0000 0000 0000 000000
2014-04-14 00:20:10,0.13,1.64,0.00,18.73,25.30,27.26,6.12,31.96,1002.45,2046.26,2853.30,2878.88,3095.93,350.38,324.47,13.73,0000 0000 0000 0000 000000
2014-04-14 00:21:10,0.20,1.65,0.00,18.72,25.31,27.23,6.01,31.96,1002.43,2046.35,2853.11,2878.41,3095.51,350.17,324.29,13.74,0000 0000 0000 0000 000000
2014-04-14 00:22:11,0.32,1.65,0.00,18.70,25.32,27.24,6.08,31.92,1002.45,2046.25,2852.86,2878.17,3095.19,350.56,324.68,13.74,0000 0000 0000 0000 000000
2014-04-14 00:23:11,0.04,1.65,0.00,18.71,25.32,27.23,6.09,31.92,1002.46,2046.17,2852.36,2878.05,3095.07,350.35,324.48,13.75,0000 0000 0000 0000 000000
2014-04-14 00:24:11,0.03,1.65,0.00,18.73,25.32,27.23,6.02,31.75,1002.46,2046.18,2852.14,2877.99,3094.94,349.77,324.19,13.76,0000 0000 0000 0000 000000
2014-04-14 00:25:11,0.09,1.65,0.00,18.72,25.32,27.25,6.03,31.88,1002.46,2046.11,2852.01,2877.72,3094.48,349.69,323.58,13.76,0000 0000 0000 0000 000000
2014-04-14 00:26:11,0.12,1.65,0.00,18.72,25.32,27.22,5.88,31.88,1002.46,2046.09,2851.63,2877.29,3094.17,349.01,323.22,13.77,0000 0000 0000 0000 000000
2014-04-14 00:27:12,0.21,1.65,0.00,18.72,25.32,27.24,6.08,31.88,1002.46,2046.06,2851.25,2877.10,3094.05,350.51,324.50,13.77,0000 0000 0000 0000 000000
2014-04-14 00:28:12,0.08,1.65,0.00,18.72,25.32,27.25,6.13,31.88,1002.46,2046.04,2851.09,2877.03,3093.92,350.60,324.79,13.78,0000 0000 0000 0000 000000
2014-04-14 00:29:12,0.04,1.65,0.00,18.73,25.32,27.25,6.09,31.96,1002.46,2046.01,2850.76,2876.81,3093.53,350.71,324.28,13.79,0000 0000 0000 0000 000000
2014-04-14 00:30:12,0.17,1.65,0.00,18.74,25.32,27.30,5.95,31.96,1002.46,2046.02,2850.32,2876.40,3093.22,348.88,323.07,13.79,0000 0000 0000 0000 000000
2014-04-14 00:31:13,0.22,1.65,0.00,18.73,25.32,27.33,6.11,32.17,1002.48,2046.02,2850.01,2876.16,3093.08,350.34,324.45,13.80,0000 0000 0000 0000 000000
2014-04-14 00:32:13,0.14,1.65,0.00,18.73,25.32,27.30,5.98,32.04,1002.48,2046.02,2849.67,2876.05,3092.87,349.86,324.00,13.80,0000 0000 0000 0000 000000
2014-04-14 00:33:13,0.09,1.66,0.00,18.71,25.32,27.27,5.98,32.00,1002.48,2046.02,2849.28,2875.96,3092.37,350.32,324.45,13.81,0000 0000 0000 0000 000000
2014-04-14 00:34:14,0.17,1.66,0.00,18.69,25.32,27.21,6.00,31.79,1002.51,2046.01,2849.05,2875.62,3092.15,349.38,324.12,13.81,0000 0000 0000 0000 000000
2014-04-14 00:35:14,0.15,1.66,0.00,18.69,25.33,27.21,6.07,31.83,1002.48,2046.02,2848.82,2875.27,3092.05,349.70,324.19,13.82,0000 0000 0000 0000 000000
2014-04-14 00:36:14,0.13,1.66,0.00,18.71,25.33,27.22,6.09,31.79,1002.51,2046.01,2848.73,2875.10,3092.01,349.90,324.07,13.83,0000 0000 0000 0000 000000
2014-04-14 00:37:15,0.07,1.66,0.00,18.72,25.34,27.22,5.89,32.04,1002.50,2046.02,2848.45,2875.05,3091.77,348.57,322.83,13.83,0000 0000 0000 0000 000000
2014-04-14 00:38:15,0.10,1.66,0.00,18.74,25.35,27.24,6.17,31.75,1002.60,2046.02,2848.16,2875.00,3091.32,350.63,324.75,13.84,0000 0000 0000 0000 000000
2014-04-14 00:39:15,0.12,1.66,0.00,18.76,25.35,27.28,5.89,31.79,1002.82,2046.03,2847.91,2874.78,3091.12,349.66,323.89,13.84,0000 0000 0000 0000 000000
2014-04-14 00:40:15,0.15,1.66,0.00,18.77,25.35,27.27,6.03,31.88,1002.93,2046.01,2847.50,2874.35,3091.01,349.94,324.04,13.85,0000 0000 0000 0000 000000
2014-04-14 00:41:15,0.17,1.66,0.00,18.77,25.35,27.32,5.99,31.96,1002.94,2046.00,2847.22,2874.12,3090.92,349.82,324.17,13.86,0000 0000 0000 0000 000000
2014-04-14 00:42:15,0.09,1.66,0.00,18.77,25.35,27.31,6.10,32.08,1002.85,2046.00,2847.07,2874.04,3090.52,349.81,324.29,13.86,0000 0000 0000 0000 000000
2014-04-14 00:43:16,0.13,1.66,0.00,18.78,25.35,27.31,6.05,31.88,1002.92,2046.00,2846.56,2873.96,3090.19,350.05,324.26,13.87,0000 0000 0000 0000 000000
2014-04-14 00:44:16,0.16,1.66,0.00,18.79,25.35,27.38,5.99,32.04,1002.87,2046.01,2846.21,2873.71,3090.07,348.67,322.96,13.87,0000 0000 0000 0000 000000
2014-04-14 00:45:16,0.14,1.66,0.00,18.80,25.35,27.57,5.98,32.08,1002.90,2046.00,2846.01,2873.32,3089.88,349.58,323.99,13.88,0000 0000 0000 0000 000000
2014-04-14 00:46:16,0.15,1.67,0.00,18.82,25.35,27.56,6.02,32.17,1002.94,2046.00,2845.70,2873.11,3089.40,349.94,324.27,13.89,0000 0000 0000 0000 000000
2014-04-14 00:47:17,0.19,1.67,0.00,18.82,25.36,27.43,5.98,31.92,1002.94,2046.00,2845.35,2873.01,3089.15,349.85,324.34,13.89,0000 0000 0000 0000 000000
2014-04-14 00:48:17,0.11,1.67,0.00,18.86,25.37,27.53,6.13,31.79,1002.94,2046.00,2845.16,2872.97,3089.05,350.42,324.34,13.90,0000 0000 0000 0000 000000
2014-04-14 00:49:17,0.06,1.67,0.00,18.85,25.37,27.51,5.97,32.04,1002.94,2046.00,2844.99,2872.62,3088.97,349.59,323.65,13.90,0000 0000 0000 0000 000000
2014-04-14 00:50:17,0.14,1.67,0.00,18.87,25.37,27.51,6.04,32.00,1002.93,2046.00,2844.65,2872.26,3088.68,349.64,323.80,13.91,0000 0000 0000 0000 000000
2014-04-14 00:51:17,0.18,1.67,0.00,18.85,25.37,27.51,6.12,32.08,1002.94,2046.00,2844.30,2872.10,3088.31,349.14,323.35,13.91,0000 0000 0000 0000 000000
2014-04-14 00:52:18,0.15,1.67,0.00,18.84,25.37,27.58,6.18,32.25,1002.91,2046.00,2844.08,2872.03,3088.11,349.96,324.11,13.92,0000 0000 0000 0000 000000
2014-04-14 00:53:18,0.11,1.67,0.00,18.85,25.37,27.56,6.10,32.08,1002.83,2046.00,2843.54,2871.55,3087.64,349.51,323.66,13.93,0000 0000 0000 0000 000000
2014-04-14 00:54:18,0.28,1.67,0.00,18.85,25.37,27.59,6.05,32.46,1002.92,2046.00,2843.09,2871.20,3087.24,350.13,324.26,13.93,0000 0000 0000 0000 000000
2014-04-14 00:55:19,0.20,1.67,0.00,18.87,25.37,27.70,6.02,32.04,1002.93,2046.00,2842.62,2871.04,3087.08,349.78,323.92,13.94,0000 0000 0000 0000 000000
2014-04-14 00:56:19,0.15,1.68,0.00,18.87,25.37,27.71,6.06,32.04,1002.94,2046.00,2842.40,2870.88,3086.99,349.20,323.39,13.94,0000 0000 0000 0000 000000
2014-04-14 00:57:19,0.11,1.68,0.00,18.89,25.38,27.66,5.97,32.21,1002.85,2046.00,2842.26,2870.51,3086.65,349.28,323.41,13.95,0000 0000 0000 0000 000000
2014-04-14 00:58:19,0.17,1.68,0.00,18.90,25.39,27.59,5.91,32.46,1002.87,2046.00,2841.74,2870.18,3086.24,349.19,323.32,13.96,0000 0000 0000 0000 000000
2014-04-14 00:59:19,0.21,1.68,0.00,18.90,25.40,27.65,6.07,32.04,1002.70,2046.00,2841.50,2870.06,3086.07,350.21,324.22,13.96,0000 0000 0000 0000 000000
2014-04-14 01:00:20,0.08,1.68,0.00,18.91,25.40,27.65,6.07,32.29,1002.83,2046.00,2841.20,2869.95,3085.88,350.11,324.21,13.97,0000 0000 0000 0000 000000
2014-04-14 01:01:20,0.11,1.68,0.00,18.90,25.40,27.62,6.05,32.13,1002.93,2046.00,2841.10,2869.72,3085.46,349.17,323.33,13.97,0000 0000 0000 0000 000000
2014-04-14 01:02:20,0.15,1.68,0.00,18.88,25.40,27.53,5.91,32.33,1002.70,2046.00,2840.88,2869.35,3085.19,349.68,323.75,13.98,0000 0000 0000 0000 000000
2014-04-14 01:03:21,0.17,1.68,0.00,18.87,25.40,27.57,6.20,32.33,1002.79,2046.00,2840.33,2869.12,3085.04,350.48,324.53,13.98,0000 0000 0000 0000 000000
2014-04-14 01:04:21,0.18,1.68,0.00,18.87,25.40,27.62,6.03,32.58,1002.66,2046.00,2839.96,2869.02,3084.74,348.63,322.76,13.99,0000 0000 0000 0000 000000
2014-04-14 01:05:21,0.13,1.68,0.00,18.89,25.40,27.59,6.05,32.25,1002.68,2046.00,2839.92,2868.90,3084.38,350.21,324.22,14.00,0000 0000 0000 0000 000000
2014-04-14 01:06:21,0.11,1.68,0.00,18.89,25.40,27.60,6.06,32.00,1002.75,2046.00,2839.59,2868.47,3084.15,349.39,323.47,14.00,0000 0000 0000 0000 000000
2014-04-14 01:07:21,0.18,1.68,0.00,18.91,25.42,27.64,6.08,32.00,1002.73,2045.99,2839.28,2868.18,3084.03,350.49,324.47,14.01,0000 0000 0000 0000 000000
2014-04-14 01:08:22,0.12,1.69,0.00,18.92,25.42,27.56,6.12,32.00,1002.54,2045.99,2839.05,2868.05,3083.91,350.46,324.35,14.01,0000 0000 0000 0000 000000
2014-04-14 01:09:22,0.08,1.69,0.00,18.94,25.42,27.61,6.16,31.96,1002.53,2045.98,2838.93,2867.98,3083.69,350.95,325.00,14.02,0000 0000 0000 0000 000000
2014-04-14 01:10:22,0.10,1.69,0.00,18.97,25.42,27.65,6.05,32.13,1002.56,2045.98,2838.45,2867.63,3083.28,349.67,323.50,14.03,0000 0000 0000 0000 000000
2014-04-14 01:11:22,0.22,1.69,0.00,18.98,25.42,27.60,6.12,31.92,1002.69,2045.99,2838.14,2867.26,3083.09,349.72,323.66,14.03,0000 0000 0000 0000 000000
2014-04-14 01:12:23,0.18,1.69,0.00,18.97,25.42,27.58,6.02,31.67,1002.57,2045.98,2837.94,2867.09,3082.95,349.69,323.61,14.04,0000 0000 0000 0000 000000
2014-04-14 01:13:23,0.11,1.69,0.00,18.97,25.42,27.62,6.12,32.04,1002.62,2045.97,2837.40,2867.03,3082.50,349.79,323.72,14.04,0000 0000 0000 0000 000000
2014-04-14 01:14:23,0.16,1.69,0.00,18.98,25.44,27.69,5.87,32.08,1002.48,2045.98,2837.17,2867.00,3082.20,349.28,323.20,14.05,0000 0000 0000 0000 000000
2014-04-14 01:15:24,0.11,1.69,0.00,18.98,25.45,27.66,6.05,32.38,1002.47,2045.97,2837.03,2866.66,3082.07,349.69,323.57,14.06,0000 0000 0000 0000 000000
2014-04-14 01:16:24,0.13,1.69,0.00,18.99,25.45,27.74,6.12,31.88,1002.47,2045.96,2836.65,2866.26,3081.99,350.17,323.79,14.06,0000 0000 0000 0000 000000
2014-04-14 01:17:24,0.15,1.69,0.00,18.98,25.45,27.69,6.03,32.17,1002.46,2045.97,2836.29,2866.08,3081.79,349.63,323.51,14.07,0000 0000 0000 0000 000000
2014-04-14 01:18:25,0.13,1.69,0.00,18.99,25.45,27.75,6.09,31.92,1002.46,2045.98,2836.07,2866.01,3081.33,350.25,324.07,14.07,0000 0000 0000 0000 000000
2014-04-14 01:19:25,0.14,1.69,0.00,18.99,25.45,27.80,5.99,32.04,1002.47,2045.98,2835.72,2865.77,3081.12,350.01,323.69,14.08,0000 0000 0000 0000 000000
2014-04-14 01:20:25,0.17,1.70,0.00,19.00,25.45,27.76,6.07,32.04,1002.46,2045.99,2835.30,2865.34,3081.04,350.37,324.10,14.08,0000 0000 0000 0000 000000
2014-04-14 01:21:25,0.21,1.70,0.00,19.00,25.45,27.78,6.13,31.92,1002.44,2045.99,2835.04,2865.13,3080.65,350.20,324.07,14.09,0000 0000 0000 0000 000000
2014-04-14 01:22:26,0.14,1.70,0.00,18.98,25.46,27.75,6.02,31.92,1002.45,2045.95,2834.66,2865.05,3080.25,349.59,323.46,14.10,0000 0000 0000 0000 000000
2014-04-14 01:23:26,0.13,1.70,0.00,18.97,25.47,27.81,6.15,32.13,1002.18,2045.96,2834.28,2864.97,3080.09,350.26,324.03,14.10,0000 0000 0000 0000 000000
2014-04-14 01:24:26,0.12,1.70,0.00,18.96,25.47,27.78,6.13,32.58,1002.23,2045.94,2833.99,2864.60,3080.01,349.89,323.58,14.11,0000 0000 0000 0000 000000
2014-04-14 01:25:27,0.13,1.70,0.00,18.96,25.47,27.78,5.92,31.88,1002.20,2045.91,2833.90,2864.27,3079.74,350.18,324.16,14.11,0000 0000 0000 0000 000000
2014-04-14 01:26:27,0.11,1.70,0.00,18.96,25.47,27.85,6.06,32.13,1002.15,2045.80,2833.49,2864.09,3079.30,349.87,323.23,14.12,0000 0000 0000 0000 000000
2014-04-14 01:27:27,0.08,1.70,0.00,18.95,25.47,27.69,6.13,31.96,1002.03,2045.72,2833.11,2864.00,3079.10,350.47,324.18,14.13,0000 0000 0000 0000 000000
2014-04-14 01:28:27,0.06,1.70,0.00,18.94,25.47,27.64,5.94,32.04,1002.01,2045.77,2832.77,2863.79,3079.02,350.56,324.27,14.13,0000 0000 0000 0000 000000
2014-04-14 01:29:28,0.13,1.70,0.00,18.93,25.47,27.60,6.14,31.88,1002.00,2045.66,2832.69,2863.48,3078.81,350.13,323.87,14.14,0000 0000 0000 0000 000000
2014-04-14 01:30:28,0.05,1.70,0.00,18.92,25.48,27.54,6.07,32.25,1001.97,2045.51,2832.30,2863.19,3078.33,348.92,322.76,14.14,0000 0000 0000 0000 000000
2014-04-14 01:31:28,0.08,1.70,0.00,18.92,25.49,27.56,6.07,32.33,1001.93,2045.38,2831.69,2863.06,3078.11,350.87,324.55,14.15,0000 0000 0000 0000 000000
2014-04-14 01:32:29,0.05,1.70,0.00,18.93,25.49,27.54,6.01,32.29,1001.90,2045.38,2831.44,2862.97,3077.99,349.87,323.69,14.15,0000 0000 0000 0000 000000
2014-04-14 01:33:29,0.10,1.70,0.00,18.94,25.50,27.56,5.85,32.04,1002.08,2045.27,2831.23,2862.56,3077.68,348.82,322.47,14.16,0000 0000 0000 0000 000000
2014-04-14 01:34:29,0.08,1.70,0.00,18.94,25.50,27.53,6.00,32.00,1002.05,2045.40,2831.31,2862.43,3077.50,349.86,323.63,14.17,0000 0000 0000 0000 000000
2014-04-14 01:35:30,0.16,1.71,0.00,18.96,25.50,27.55,6.11,32.00,1002.00,2045.43,2831.11,2862.18,3077.20,349.99,323.71,14.17,0000 0000 0000 0000 000000
2014-04-14 01:36:30,0.17,1.71,0.00,18.97,25.50,27.64,6.15,31.79,1001.97,2045.48,2831.00,2862.06,3077.07,351.08,324.82,14.18,0000 0000 0000 0000 000000
2014-04-14 01:37:30,0.11,1.71,0.00,18.96,25.50,27.58,6.02,31.54,1001.97,2045.43,2830.64,2861.99,3076.96,349.95,323.38,14.18,0000 0000 0000 0000 000000
2014-04-14 01:38:30,0.05,1.71,0.00,18.96,25.50,27.54,6.02,32.13,1001.97,2045.35,2830.23,2861.80,3076.59,350.53,324.21,14.19,0000 0000 0000 0000 000000
2014-04-14 01:39:31,0.11,1.71,0.00,18.96,25.50,27.59,5.97,31.88,1001.97,2045.36,2830.00,2861.40,3076.25,349.79,323.52,14.20,0000 0000 0000 0000 000000
2014-04-14 01:40:31,0.21,1.71,0.00,18.94,25.51,27.55,5.94,31.75,1001.97,2045.33,2829.58,2861.15,3076.09,349.89,323.81,14.20,0000 0000 0000 0000 000000
2014-04-14 01:41:31,0.14,1.71,0.00,18.94,25.52,27.58,6.12,31.88,1001.96,2045.26,2829.15,2861.04,3075.94,350.35,324.05,14.21,0000 0000 0000 0000 000000
2014-04-14 01:42:32,0.04,1.71,0.00,18.94,25.52,27.61,6.08,31.79,1001.97,2045.23,2828.82,2860.93,3075.52,350.68,324.42,14.21,0000 0000 0000 0000 000000
2014-04-14 01:43:32,0.12,1.71,0.00,18.93,25.52,27.60,6.08,31.75,1001.97,2045.23,2828.38,2860.62,3075.19,350.36,323.95,14.22,0000 0000 0000 0000 000000
2014-04-14 01:44:32,0.18,1.71,0.00,18.94,25.52,27.60,6.03,31.88,1001.97,2045.15,2828.11,2860.25,3075.06,349.08,322.89,14.23,0000 0000 0000 0000 000000
2014-04-14 01:45:33,0.12,1.71,0.00,18.94,25.52,27.63,6.01,31.67,1001.96,2045.11,2827.96,2860.09,3074.99,350.27,323.98,14.23,0000 0000 0000 0000 000000
2014-04-14 01:46:33,0.04,1.71,0.00,18.92,25.52,27.58,5.96,31.79,1001.97,2045.08,2827.81,2860.03,3074.69,349.90,323.67,14.24,0000 0000 0000 0000 000000
2014-04-14 01:47:33,0.08,1.71,0.00,18.90,25.52,27.59,6.05,31.83,1001.97,2045.04,2827.34,2859.88,3074.28,349.75,323.55,14.24,0000 0000 0000 0000 000000
2014-04-14 01:48:33,0.14,1.72,0.00,18.92,25.52,27.59,6.08,31.79,1001.92,2045.03,2827.11,2859.52,3074.10,350.26,323.99,14.25,0000 0000 0000 0000 000000
2014-04-14 01:49:34,0.13,1.72,0.00,18.92,25.52,27.65,6.04,31.92,1001.92,2045.01,2826.98,2859.23,3073.97,349.67,323.44,14.25,0000 0000 0000 0000 000000
2014-04-14 01:50:34,0.14,1.72,0.00,18.93,25.53,27.65,6.01,31.67,1001.92,2045.00,2826.45,2859.08,3073.48,349.92,323.82,14.26,0000 0000 0000 0000 000000
2014-04-14 01:51:34,0.16,1.72,0.00,18.94,25.53,27.72,5.93,31.75,1001.95,2045.00,2826.16,2859.01,3073.18,349.06,322.77,14.27,0000 0000 0000 0000 000000
2014-04-14 01:52:34,0.11,1.72,0.00,18.95,25.54,27.67,5.97,31.92,1001.93,2045.01,2826.03,2858.82,3073.07,350.01,323.45,14.27,0000 0000 0000 0000 000000
2014-04-14 01:53:34,0.11,1.72,0.00,18.95,25.54,27.63,6.01,31.96,1001.88,2045.00,2825.77,2858.38,3072.99,349.91,323.62,14.28,0000 0000 0000 0000 000000
2014-04-14 01:54:35,0.16,1.72,0.00,18.94,25.55,27.67,5.98,31.79,1001.78,2045.01,2825.45,2858.14,3072.74,349.66,323.36,14.28,0000 0000 0000 0000 000000
2014-04-14 01:55:35,0.16,1.72,0.00,18.94,25.55,27.73,5.95,31.67,1001.61,2045.02,2825.07,2858.04,3072.32,350.16,323.43,14.29,0000 0000 0000 0000 000000
2014-04-14 01:56:35,0.14,1.72,0.00,18.93,25.55,27.73,6.00,31.83,1001.58,2045.01,2824.73,2857.95,3072.12,349.46,322.89,14.30,0000 0000 0000 0000 000000
2014-04-14 01:57:35,0.10,1.72,0.00,18.92,25.55,27.69,6.05,32.04,1001.51,2045.00,2824.51,2857.74,3072.04,349.63,323.37,14.30,0000 0000 0000 0000 000000
2014-04-14 01:58:35,0.15,1.72,0.00,18.92,25.55,27.67,6.06,31.83,1001.51,2045.00,2824.12,2857.33,3071.74,350.06,323.65,14.31,0000 0000 0000 0000 000000
2014-04-14 01:59:36,0.19,1.72,0.00,18.93,25.55,27.68,5.99,31.42,1001.49,2045.02,2823.92,2857.12,3071.41,349.95,323.55,14.31,0000 0000 0000 0000 000000
2014-04-14 02:00:36,0.16,1.73,0.00,18.92,25.55,27.67,6.03,32.08,1001.48,2045.02,2823.54,2857.03,3071.16,350.12,323.71,14.32,0000 0000 0000 0000 000000
2014-04-14 02:01:37,0.12,1.73,0.00,18.91,25.55,27.65,6.15,32.08,1001.48,2045.02,2823.28,2856.90,3071.05,350.76,324.01,14.32,0000 0000 0000 0000 000000
2014-04-14 02:02:37,0.06,1.73,0.00,18.90,25.56,27.57,5.90,31.88,1001.45,2045.01,2823.17,2856.67,3070.99,348.92,323.10,14.33,0000 0000 0000 0000 000000
2014-04-14 02:03:37,0.14,1.73,0.00,18.88,25.56,27.55,6.01,31.79,1001.40,2045.00,2822.65,2856.27,3070.57,351.41,324.98,14.34,0000 0000 0000 0000 000000
2014-04-14 02:04:37,0.23,1.73,0.00,18.87,25.57,27.55,6.09,31.96,1001.39,2045.00,2822.18,2856.09,3070.21,350.11,323.73,14.34,0000 0000 0000 0000 000000
2014-04-14 02:05:38,0.19,1.73,0.00,18.88,25.57,27.51,5.96,31.96,1001.44,2045.00,2821.58,2855.83,3069.99,348.41,322.16,14.35,0000 0000 0000 0000 000000
2014-04-14 02:06:38,0.21,1.73,0.00,18.88,25.57,27.50,6.03,32.08,1001.43,2045.00,2821.16,2855.41,3069.67,349.83,323.48,14.35,0000 0000 0000 0000 000000
2014-04-14 02:07:38,0.22,1.73,0.00,18.89,25.57,27.57,6.03,32.04,1001.46,2045.00,2820.98,2855.16,3069.27,350.63,324.20,14.36,0000 0000 0000 0000 000000
2014-04-14 02:08:39,0.13,1.73,0.00,18.89,25.57,27.57,6.12,31.79,1001.47,2045.00,2820.85,2855.06,3069.11,350.69,324.28,14.37,0000 0000 0000 0000 000000
2014-04-14 02:09:39,0.09,1.73,0.00,18.88,25.57,27.56,6.07,31.96,1001.46,2045.00,2820.37,2854.98,3069.00,350.00,323.61,14.37,0000 0000 0000 0000 000000
2014-04-14 02:10:39,0.11,1.73,0.00,18.89,25.57,27.54,6.08,31.96,1001.47,2045.00,2819.92,2854.66,3068.67,350.21,323.36,14.38,0000 0000 0000 0000 000000
2014-04-14 02:11:39,0.19,1.74,0.00,18.89,25.57,27.65,5.97,31.92,1001.45,2045.00,2819.60,2854.29,3068.30,349.42,323.35,14.38,0000 0000 0000 0000 000000
2014-04-14 02:12:40,0.22,1.74,0.00,18.89,25.57,27.68,6.00,31.79,1001.47,2045.00,2819.27,2854.11,3068.11,349.71,323.06,14.39,0000 0000 0000 0000 000000
2014-04-14 02:13:40,0.12,1.74,0.00,18.90,25.57,27.69,5.85,31.92,1001.46,2045.00,2819.11,2854.04,3068.03,348.33,322.08,14.39,0000 0000 0000 0000 000000
2014-04-14 02:14:40,0.06,1.74,0.00,18.89,25.57,27.77,6.06,31.92,1001.42,2045.00,2818.89,2853.98,3067.93,349.46,323.11,14.40,0000 0000 0000 0000 000000
2014-04-14 02:15:40,0.05,1.74,0.00,18.89,25.58,27.69,6.03,32.13,1001.43,2045.00,2818.81,2853.89,3067.69,350.32,323.63,14.41,0000 0000 0000 0000 000000
2014-04-14 02:16:41,0.13,1.74,0.00,18.88,25.58,27.65,6.01,32.04,1001.42,2045.01,2818.43,2853.46,3067.29,349.44,323.10,14.41,0000 0000 0000 0000 000000
2014-04-14 02:17:41,0.19,1.74,0.00,18.87,25.58,27.66,6.08,31.96,1001.36,2045.00,2818.19,2853.21,3067.11,350.00,323.67,14.42,0000 0000 0000 0000 000000
2014-04-14 02:18:41,0.13,1.74,0.00,18.87,25.59,27.59,5.96,32.04,1001.34,2045.00,2818.00,2853.08,3067.03,349.76,323.40,14.42,0000 0000 0000 0000 000000
2014-04-14 02:19:42,0.07,1.74,0.00,18.87,25.59,27.57,6.16,32.00,1001.20,2045.00,2817.70,2853.01,3066.78,350.45,324.17,14.43,0000 0000 0000 0000 000000
2014-04-14 02:20:42,0.12,1.74,0.00,18.88,25.60,27.57,5.86,31.67,1001.12,2045.00,2817.31,2852.81,3066.34,348.91,322.15,14.44,0000 0000 0000 0000 000000
2014-04-14 02:21:42,0.19,1.74,0.00,18.89,25.60,27.61,6.11,31.71,1001.04,2045.00,2817.02,2852.38,3066.12,350.03,323.37,14.44,0000 0000 0000 0000 000000
2014-04-14 02:22:42,0.19,1.74,0.00,18.88,25.60,27.65,5.93,31.88,1000.99,2045.00,2816.48,2852.14,3066.02,349.47,322.99,14.45,0000 0000 0000 0000 000000
2014-04-14 02:23:43,0.17,1.75,0.00,18.86,25.60,27.63,6.02,31.83,1000.99,2045.00,2816.12,2852.02,3065.59,349.62,323.15,14.45,0000 0000 0000 0000 000000
2014-04-14 02:24:43,0.16,1.75,0.00,18.87,25.60,27.68,6.10,31.79,1000.99,2045.00,2815.85,2851.82,3065.23,350.62,324.07,14.46,0000 0000 0000 0000 000000
2014-04-14 02:25:43,0.13,1.75,0.00,18.86,25.60,27.73,6.00,31.92,1001.00,2045.01,2815.74,2851.50,3065.08,349.37,322.93,14.47,0000 0000 0000 0000 000000
2014-04-14 02:26:43,0.12,1.75,0.00,18.85,25.60,27.68,6.08,32.04,1000.99,2045.01,2815.62,2851.22,3065.01,349.53,323.09,14.47,0000 0000 0000 0000 000000
2014-04-14 02:27:44,0.12,1.75,0.00,18.85,25.60,27.69,6.08,32.08,1000.99,2045.00,2815.17,2851.08,3064.69,350.05,323.57,14.48,0000 0000 0000 0000 000000
2014-04-14 02:28:44,0.15,1.75,0.00,18.85,25.60,27.72,6.07,31.83,1000.99,2045.00,2814.62,2851.00,3064.28,350.27,324.15,14.48,0000 0000 0000 0000 000000
2014-04-14 02:29:44,0.16,1.75,0.00,18.85,25.60,27.70,6.02,31.75,1001.00,2045.00,2814.26,2850.70,3064.10,350.49,323.62,14.49,0000 0000 0000 0000 000000
2014-04-14 02:30:45,0.18,1.75,0.00,18.85,25.60,27.66,5.98,32.25,1000.99,2045.00,2813.93,2850.28,3063.92,348.95,322.56,14.49,0000 0000 0000 0000 000000
2014-04-14 02:31:45,0.20,1.75,0.00,18.84,25.60,27.72,6.08,32.13,1001.01,2045.00,2813.55,2850.10,3063.49,349.63,323.19,14.50,0000 0000 0000 0000 000000
2014-04-14 02:32:45,0.16,1.75,0.00,18.84,25.60,27.66,6.01,32.21,1001.01,2045.00,2813.27,2849.91,3063.18,348.77,322.40,14.51,0000 0000 0000 0000 000000
2014-04-14 02:33:45,0.16,1.76,0.00,18.84,25.60,27.56,6.06,31.92,1001.09,2045.00,2813.07,2849.65,3063.06,350.07,323.32,14.51,0000 0000 0000 0000 000000
2014-04-14 02:34:46,0.10,1.76,0.00,18.84,25.60,27.62,6.07,31.75,1001.25,2045.00,2812.93,2849.40,3062.98,350.04,323.88,14.52,0000 0000 0000 0000 000000
2014-04-14 02:35:46,0.12,1.76,0.00,18.84,25.60,27.63,6.09,31.88,1001.40,2045.00,2812.74,2849.16,3062.69,349.93,323.84,14.52,0000 0000 0000 0000 000000